Regional Weather Roundup
Issued by NWS Northern Indiana

Current Version | Previous Version | Text Only | Print | Product List | Glossary On
Versions: 1 2 3 4 5 6 7 8 9 10 11 12 13 14 15 16 17 18 19 20 21 22 23 24 25 26 27 28 29 30 31 32 33 34 35 36 37 38 39 40 41 42 43 44 45 46 47 48 49 50
000
ASUS43 KIWX 282110
RWRIWX

KIWX WEATHER ROUNDUP
NATIONAL WEATHER SERVICE NORTHERN INDIANA
500 PM EDT THU MAY 28 2015

NOTE: "FAIR" INDICATES FEW OR NO CLOUDS BELOW 12,000 FEET WITH NO
SIGNIFICANT WEATHER AND/OR OBSTRUCTIONS TO VISIBILITY.

* THESE STATIONS ARE NOT UNDER NWS QUALITY CONTROL. THEY ALSO MAY NOT
  REPORT WEATHER SUCH AS PRECIPITATION OR FOG.

INZ001>027-282200-
NORTHERN INDIANA

CITY           SKY/WX    TMP DP  RH WIND       PRES   REMARKS
GARY*          PTSUNNY   79  57  47 N8        30.15F
VALPARAISO     SUNNY     82  54  37 E12       30.16F
MICHIGAN CITY* SUNNY     81  52  36 SE7       30.15F
LAPORTE*       SUNNY     84  52  32 SE12      30.16F
KNOX*          SUNNY     81  54  39 SE9G18    30.15F
SOUTH BEND     SUNNY     82  51  34 SE15G22   30.17S
GOSHEN         SUNNY     81  57  43 SE12      30.18S
MONTICELLO*    SUNNY     81  57  43 SE6       30.13F
LOGANSPORT*    MOSUNNY   82  50  32 SE13G18   30.15F
ROCHESTER*     SUNNY     82  55  39 E10G16    30.16F
WARSAW*        SUNNY     79  55  44 SE9       30.18S
ANGOLA*        SUNNY     81  57  44 SE13      30.20S
FORT WAYNE     MOSUNNY   81  59  47 E13G22    30.17F
HUNTINGTON*    MOSUNNY   80  58  46 E10       30.16F
PERU/GRISSOM   PTSUNNY   82  59  45 SE9       30.14F
MARION*        PTSUNNY   82  54  37 E9        30.16F

$$
INZ028>050-282200-
CENTRAL INDIANA

CITY           SKY/WX    TMP DP  RH WIND       PRES   REMARKS
LAFAYETTE      SUNNY     81  54  39 S9        30.12F
KOKOMO*        PTSUNNY   82  57  42 S10       30.14F
MUNCIE*        MOSUNNY   83  55  38 SE8       30.15F
INDIANAPOLIS   MOSUNNY   83  58  42 S10G16    30.13F

$$
MIZ043>046-050>051-056>058-064>065-071>073-077>080-282200-
SOUTHWEST LOWER MICHIGAN

CITY           SKY/WX    TMP DP  RH WIND       PRES   REMARKS
BATTLE CREEK   SUNNY     80  56  43 S6        30.20S
BENTON HARBOR  MOSUNNY   81  55  40 E7        30.16F
COLDWATER*     MOSUNNY   77  56  47 SE6       30.20S
HILLSDALE*     SUNNY     79  55  43 SE7       30.22R
HOLLAND        MOSUNNY   79  60  52 W7        30.19R
GRAND RAPIDS   PTSUNNY   81  57  43 S9        30.18S
KALAMAZOO      MOSUNNY   80  56  43 S9        30.19S
STURGIS*       MOSUNNY   79  55  44 SE10      30.18F
THREE RIVERS*  FAIR      81  52  36 E12       30.19S

$$
OHZ001>008-015>018-024>025-282200-
NORTHWEST OHIO

CITY           SKY/WX    TMP DP  RH WIND       PRES   REMARKS
WAUSEON*       FAIR      81  55  41 E12       30.21R
DEFIANCE       SUNNY     80  56  43 E13       30.20S
FINDLAY          N/A     83  58  42 SE9       30.18F
TOLEDO EXPRESS MOSUNNY   79  53  40 E9        30.20F
TOLEDO METCALF SUNNY     76  52  43 E8        30.22F
LIMA           MOSUNNY   82  57  42 SE6       30.18F

$$
AND FOR LAKE MICHIGAN COASTAL AND OPEN LAKE BUOY OBSERVATIONS

STATION/POSITION TEMP    WIND        PRES    VSBY  WAVE
                 AIR SEA DIR/SP/G                  HT/PER
                 (F)     (DEG/KT/KT) (MB)    (MI)  (FT/S)
CALUMET HARBOR    71      30/  7/ 11   N/A
MICHIGAN CITY     72      20/  7/ 12   N/A
BURNS HARBOR      65     330/  3/  9 1021.3S
SAINT JOSEPH      68     340/  6/  8 1021.7F
SOUTH LAKE BUOY   54 39  150/  2/  2 1022.4F         0
4 MI NW BRIDGMAN  62 59  360/  6/  8   N/A           0
MICHIGAN CITY     60 56   40/  8/ 10   N/A           1

$$
&&



USA.gov is the U.S. government's official web portal to all federal, state and local government web resources and services.